Tracking 19638 objects as of 19-May-2019
HD Live streaming from Space Station
objects crossing your sky now

EXPRESS 1

Track EXPRESS 1 now!
EXPRESS 1 is classified as:


NORAD ID: 23319
Int'l Code: 1994-067A
Perigee: 35,908.0 km
Apogee: 35,926.2 km
Inclination: 13.6 °
Period: 1,442.4 minutes
Semi major axis: 42288 km
RCS: 8.7707 m2 (large)
Launch date: October 13, 1994
Source: Commonwealth of Independent States (former USSR) (CIS)
Launch site: TYURATAM MISSILE AND SPACE COMPLEX (TTMTR)
aabbcc
Your satellite tracking list
Your tracking list is empty




NASA's NSSDC Master Catalog

Two Line Element Set (TLE):
1 23319U 94067A   19137.96972299 -.00000339  00000-0  00000+0 0  9993
2 23319  13.6290  22.1500 0002161 279.4420  66.5656  0.99833335 89777
Source of the keplerian elements: AFSPC